Search your local weather  

 

Hazardous Weather Conditions

Winter Weather Advisory issued October 23 at 12:11PM MDT until October 24 at 8:00AM MDT

Current Conditions: DENVER, COLORADO

Showers in Vicinity


45.0 F

Last Updated on Oct 23 2019, 2:47 pm MDT
Humidity: 57%
Wind Speed: NE 18.4 G 25.3 mph
Barometer 30.09 in
Dewpoint: 30.2 F
Visibility: 20.00 mi
Precip: --
Heat Index: NA
Wind Chill: 37 F
Current conditions at:

Broomfield / Jeffco, CO (KBJC)

Lat: 39.90085 Lon: -105.10417

Local Radar Image active severe weather and emergency alerts image image weather storm and storm spotter reports image weather observation monitoring service image
Local
Radar
Active
Alerts
Storm Reports Weather
Monitoring

5 Day Forecast for DENVER, COLORADO

Wednesday

Rain/Snow Mix
High 56 °F
Wednesday
Night
Snow

Low 26 °F
Thursday

Chance of Snow
High 40 °F
Thursday
Night
Mostly Clear

Low 26 °F
Friday

Mostly Sunny

High 59 °F
Friday
Night
Mostly Clear

Low 26 °F
Saturday

Mostly Sunny

High 68 °F
Saturday
Night
Slight Chance of Snow
Low 26 °F
Sunday

Chance of Snow
High 38 °F

Sign-up For Email & Text Message Weather Alert Notification Services


Advertise Here

Observation History for DENVER, COLORADO


Time Wind
(mph)
Vis
(mi)
Weather Precip (in) Temperature (F) Relative
Humidity
Wind
Chill
(°F)
Heat
Index
(°F)
Pressure
Air Dwpt altimeter
(in)
sea level
(mb)
2:47 pm MDT NE 18.4 G 25.3 20.00 Showers in Vicinity -- 45.0 30.2 57% 37 NA 30.09 M
1:45 pm MDT N 21.9 G 32.2 10.00 Light Rain and Breezy -- 43.0 32.0 66% 34 NA 30.09 M
12:48 pm MDT NE 9.2 G 19.6 10.00 Partly Cloudy -- 50.0 26.6 40% 46 NA 30.07 M
11:45 am MDT E 10.4 G 18.4 10.00 A Few Clouds -- 48.0 30.2 50% 43 NA 30.08 M
10:46 am MDT SE 13.8 40.00 A Few Clouds -- 46.0 32.0 57% 40 NA 30.08 M
9:46 am MDT S 15.0 40.00 Mostly Cloudy -- 43.0 32.0 66% 36 NA 30.09 M
8:46 am MDT S 11.5 G 18.4 40.00 Mostly Cloudy -- 39.0 32.0 75% 32 NA 30.11 M
6:47 am MDT N 11.5 G 18.4 10.00 Mostly Cloudy -- 50.0 24.8 37% 46 NA 30.04 M
5:54 am MDT N 19.6 G 24.2 10.00 Fair -- 50.0 26.6 40% 44 NA 30.01 M
4:54 am MDT W 23.0 G 36.8 10.00 Fair and Breezy -- 54.0 23.0 30% 48 NA 29.97 M
3:53 am MDT NW 11.5 G 23.0 10.00 Fair -- 54.0 19.4 26% 51 NA 29.94 M
2:54 am MDT NW 16.1 G 25.3 10.00 Fair -- 54.0 21.2 28% 50 NA 29.94 M
1:54 am MDT NW 13.8 G 26.5 10.00 Fair -- 54.0 23.0 30% 50 NA 29.93 M
12:52 am MDT NW 18.4 G 35.7 10.00 Fair -- 55.0 23.0 28% 50 NA 29.95 M
11:54 pm MDT W 29.9 G 35.7 10.00 Fair and Windy -- 55.0 23.0 28% 49 NA 29.95 M
10:54 pm MDT W 25.3 G 33.4 10.00 Fair and Breezy -- 55.0 24.8 31% 49 NA 29.94 M
9:45 pm MDT W 18.4 G 31.1 10.00 Mostly Cloudy -- 55.0 24.8 31% 50 NA 29.97 M
8:45 pm MDT NW 17.3 G 25.3 10.00 Mostly Cloudy -- 55.0 26.6 33% 51 NA 29.99 M
7:54 pm MDT W 24.2 G 32.2 10.00 Mostly Cloudy and Breezy -- 55.0 26.6 33% 50 NA 29.98 M
6:50 pm MDT W 28.8 G 40.3 10.00 Mostly Cloudy and Windy -- 55.0 26.6 33% 49 NA 30.01 M
4:45 pm MDT W 18.4 G 27.6 10.00 Mostly Cloudy -- 61.0 26.6 27% 58 NA 30.02 M
3:47 pm MDT W 33.4 G 44.9 70.00 Mostly Cloudy and Windy -- 59.0 24.8 27% 54 NA 30.01 M

Regional Weather Observation

Erie Municipal Airport, CO (KEIK)

Overcast and Breezy
47.0 F

Boulder Municipal Airport, CO (KBDU)

Light Rain
45.0 F

Fort Collins/Loveland - Northern Colorado Regional Airport, CO (KFNL)

Mostly Cloudy and Windy
48.0 F

Buckley Air Force Base Airport, CO (KBKF)

Mostly Cloudy
41.0 F

Denver, Denver International Airport, CO (KDEN)

Mostly Cloudy and Breezy
45.0 F

Denver - Centennial Airport, CO (KAPA)

Mostly Cloudy
41.0 F

Advertise Here

Advertise Here